Home > Weather > Ottawa > Past weeks

Flag for Canada Weather for the Past 2 Weeks in Ottawa, Ontario, Canada

Now
37 °F

Clear.


Feels Like: 37 °F
Forecast: 36 / 62 °F
Wind: 2 mph from Southwest

Location: Ottawa Int'L. Ont.

Current Time: May 3, 2016 at 3:09:46 AM

Latest Report: May 3, 2016 at 2:00 AM


Visibility: 10 mi

Pressure: 29.96 "Hg

Humidity: 100%

Dew Point: 37 °F

Location of OttawaLocation

Historic Weather in Ottawa — Graph

°F

Ottawa Temperature Yesterday

Maximum temperature yesterday: 48 °F (at 11:00 AM)
Minimum temperature yesterday: 43 °F (at 12:00 AM)
Average temperature yesterday: 45 °F

High & Low Weather Summary for the Past Weeks

 TemperatureHumidityPressure
High72 °F (Apr 21, 3:00 PM)100% (Apr 18, 11:00 PM)30.38 "Hg (Apr 18, 11:00 PM)
Low27 °F (Apr 27, 6:00 AM)14% (Apr 20, 4:00 PM)29.78 "Hg (Apr 22, 7:00 AM)
Average45 °F48%30.10 "Hg
* Reported Apr 18 1:00 AM — May 3 1:00 AM, Ottawa, Weather by CustomWeather, © 2016

Note: Actual official high and low records may vary slightly from our data, if they occured in-between our weather recording intervals... More about our weather records

Advertising

Ottawa Weather History for the Previous 24 Hours

Scroll right to see more
 ConditionsComfort  
Time TempWeatherWind HumidityBarometerVisibility
1:00 AM
Tue, May 3
41 °FPassing clouds.2 mph93%29.98 "Hg15 mi
12:00 AM43 °FOvercast.2 mph100%30.01 "Hg15 mi
11:00 PM
Mon, May 2
43 °FOvercast.2 mph100%30.02 "Hg15 mi
10:00 PM45 °FOvercast.3 mph93%30.02 "Hg15 mi
9:00 PM45 °FOvercast.2 mph93%30.03 "Hg15 mi
8:00 PM45 °FLight rain. More clouds than sun.3 mph93%30.02 "Hg15 mi
7:00 PM46 °FLight rain. Mostly cloudy.6 mph87%30.01 "Hg15 mi
6:00 PM46 °FMostly cloudy.7 mph87%30.01 "Hg15 mi
5:00 PM48 °FBroken clouds.5 mph82%30.00 "Hg15 mi
4:00 PM48 °FOvercast.7 mph76%29.99 "Hg15 mi
3:00 PM48 °FPartly sunny.7 mph76%29.99 "Hg15 mi
2:00 PM48 °FOvercast.7 mph76%29.99 "Hg15 mi
1:00 PM48 °FOvercast.12 mph82%29.98 "Hg15 mi
12:00 PM46 °FMostly cloudy.12 mph82%29.98 "Hg15 mi
11:00 AM48 °FPartly sunny.12 mph82%29.98 "Hg15 mi
10:00 AM46 °FOvercast.10 mph87%30.00 "Hg15 mi
9:00 AM45 °FLight rain. Mostly cloudy.10 mph93%30.00 "Hg15 mi
8:00 AM45 °FLight rain. Mostly cloudy.10 mph93%30.01 "Hg15 mi
7:54 AM45 °FLight rain. Mostly cloudy.9 mph93%30.01 "Hg15 mi
7:00 AM45 °FOvercast.8 mph87%30.01 "Hg15 mi
6:00 AM45 °FOvercast.12 mph87%30.00 "Hg15 mi
5:00 AM43 °FLow clouds.No wind100%30.05 "Hg10 mi
4:00 AM43 °FDrizzle. Fog.8 mph100%30.01 "Hg2 mi
3:00 AM43 °FDrizzle. Fog.9 mph100%30.02 "Hg5 mi
Weather by CustomWeather, © 2016

See weather overviewHow to use our weather pages